STARLINK-35591, 66984

Orbit data source: Space-Track

STARLINK-35591, 66984 is a payload satellite owned by SpaceX/Seattle (US) in LEO that was launched on Mon, 08 Dec 2025 UTC via an FALCON 9 launch vehicle from the Air Force Eastern Test Range (AFETR). Payload-class satellites include a variety of spacecraft equipped with specific instruments for various scientific and technological missions. These include communications satellites like Starlink; space stations such as the ISS; scientific satellites like the Hubble; Earth observation satellites from companies like Planet Labs, Umbra, and HawkEye 360; GPS; miniature CubeSats for education and research; and military/defense satellites.

Loading next visibility...
Identifier
66984, 2025-288AB
Orbit
LEO
Country
Flag of USUS
Related business
Manufacturer
SpaceX/Seattle
Mission
Operational Commercial Communications
Bus & Motor
STARLINK V2MO, Unknown motor
Mass
575 kg wet, ~530 kg dry
Launch date (UTC)
2025-12-08 (5 months ago)
Launch vehicle
FALCON 9
Launch site
Air Force Eastern Test Range (AFETR)
Object type
Payload
Rocket body
Debris
Shape & HBR
Box + 2 Pan, 17.7 m
Radar Cross Section
36.964 m²

Expand to show TLE details & history
Last TLE update: 12 hours ago

TLE from 12 hours ago
0 STARLINK-35591
1 66984U 25288AB  26130.01868926  .00000402  00000-0  24124-4 0  9993
2 66984  43.0024  37.3768 0001502 275.0150  85.0530 15.27569618 24669
Epoch: 2026-05-10T00:26Z
TLE epoch observation values (Epoch: 2026-05-10T00:26:54.752Z)
Latitude
-0.00001°
Longitude
162.82086°
Altitude
482.767 km
Speed
7.626 km/s
True Right ascension
02h 29m 30s
True Declination
0° 00' 00"
Sunlit
Object was in daylight at epoch
Visualization orbit readout
Latitude
Unknown
Longitude
Unknown
Altitude
Unknown
Speed
Unknown
Apparent Right ascension
Unknown
Apparent Declination
Unknown
Sunlit
N/A
Visualization observer readout
Local Sidereal Time
20:36:18
Azimuth
Unknown
Elevation
Unknown
Doppler factor
Unknown
Orbital elements
Apogee altitude
486.056 km
Perigee altitude
483.994 km
Semi-major axis
6,863.162 km
Eccentricity
0.00015
Inclination
43.0024°
RAAN
37.3768°
Arg. of periapsis
275.015°
True anomaly
85.07015°
Mean anomaly
85.053°
Eccentric anomaly
85.06157°
Mean motion
3.8173 °/min
Orbital period
94.31 mins
BSTAR
0.000024124
Loading maneuver chart data...
Computing Atmospheric mass density...
Loading historical data...
Loading historical data...
Loading historical data...
Loading historical data...
Loading historical data...
Loading historical data...
Loading historical data...

Documentation

Showing up to 5 results
|